Weather History for Sacramento, CA

Change the Weather History Date:

Thursday, November 22, 2012

  Actual Average Record
Temperature  
Mean Temperature 55 °F -  
Max Temperature 64 °F 61 °F 75 °F (1959)
Min Temperature 45 °F 41 °F 29 °F (1941)
Degree Days  
Heating Degree Days 10    
Cooling Degree Days 0    
Growing Degree Days 4 (Base 50)    
Moisture  
Dew Point 43 °F    
Average Humidity 74    
Maximum Humidity 93    
Minimum Humidity 50    
Precipitation  
Precipitation 0.00 in 0.08 in 0.86 in (1978)
Month to date precipitation 1.59 1.41  
Year to date precipitation 12.62 14.60  
Since 1 July precipitation 2.76 2.70  
Sea Level Pressure  
Sea Level Pressure 30.21 in    
Wind  
Wind Speed 4 mph (NNW)    
Max Wind Speed 12 mph    
Max Gust Speed 14 mph    
Visibility 10 miles    
Events      
T = Trace of Precipitation, MM = Missing Value Source: NWS Daily Summary

Daily Weather History Graph

Daily Weather History Graph

Search for Another Location

Airport:

Trip Planner

Search our weather history database for the weather conditions in past years. The results will help you decide how hot, cold, wet, or windy it might be!

Date:

Astronomy

Nov. 22, 2012 Rise Set
Actual Time 6:55 AM PST 4:48 PM PST
Civil Twilight 6:27 AM PST 5:17 PM PST
Nautical Twilight 5:54 AM PST 5:49 PM PST
Astronomical Twilight 5:23 AM PST 6:21 PM PST
Moon 1:33 PM PST (11/22) 1:24 AM PST (11/22)
Length of Visible Light 10h 49m
Length of Day
9h 52m
Waxing Gibbous, 72% of the Moon is Illuminated
Nov 22
Waxing Gibbous
Nov 28
Full
Dec 6
Last Quarter
Dec 13
New
Dec 19
First Quarter

Hourly Weather History & Observations

Time (PST) Temp. Windchill Dew Point Humidity Pressure Visibility Wind Dir Wind Speed Gust Speed Precip Events Conditions
12:53 AM 48.9 °F - 45.0 °F 86% 30.20 in 10.0 mi NNW 3.5 mph - N/A   Clear
1:46 AM 48.2 °F - 46.4 °F 93% 30.19 in 10.0 mi NNW 4.6 mph - N/A   Mostly Cloudy
1:53 AM 50.0 °F - 46.9 °F 89% 30.19 in 9.0 mi NNW 4.6 mph - N/A   Scattered Clouds
2:53 AM 50.0 °F - 46.9 °F 89% 30.20 in 10.0 mi NNW 4.6 mph - N/A   Clear
3:53 AM 48.0 °F - 44.1 °F 86% 30.19 in 10.0 mi NW 4.6 mph - N/A   Clear
4:53 AM 46.9 °F - 41.0 °F 80% 30.19 in 10.0 mi WNW 5.8 mph - N/A   Clear
5:53 AM 46.0 °F 43.9 °F 39.9 °F 79% 30.21 in 10.0 mi North 4.6 mph - N/A   Clear
6:53 AM 46.0 °F 43.1 °F 39.9 °F 79% 30.22 in 10.0 mi NW 5.8 mph - N/A   Clear
7:53 AM 48.9 °F - 39.9 °F 71% 30.24 in 10.0 mi NNW 8.1 mph - N/A   Clear
8:53 AM 51.1 °F - 41.0 °F 68% 30.25 in 10.0 mi North 6.9 mph - N/A   Clear
9:53 AM 54.0 °F - 42.1 °F 64% 30.26 in 10.0 mi NW 5.8 mph - N/A   Clear
10:53 AM 57.0 °F - 42.1 °F 57% 30.25 in 10.0 mi NW 6.9 mph - N/A   Clear
11:53 AM 59.0 °F - 43.0 °F 55% 30.22 in 10.0 mi NNW 4.6 mph - N/A   Clear
12:53 PM 62.1 °F - 44.1 °F 52% 30.21 in 10.0 mi NW 9.2 mph - N/A   Clear
1:53 PM 62.1 °F - 44.1 °F 52% 30.19 in 10.0 mi WNW 6.9 mph - N/A   Clear
2:53 PM 63.0 °F - 44.1 °F 50% 30.18 in 10.0 mi NW 4.6 mph - N/A   Clear
3:53 PM 61.0 °F - 43.0 °F 52% 30.19 in 10.0 mi NNW 4.6 mph - N/A   Clear
4:53 PM 59.0 °F - 43.0 °F 55% 30.19 in 10.0 mi NNE 3.5 mph - N/A   Clear
5:53 PM 52.0 °F - 44.1 °F 74% 30.19 in 10.0 mi Calm Calm - N/A   Clear
6:53 PM 48.9 °F - 44.1 °F 83% 30.21 in 10.0 mi Calm Calm - N/A   Clear
7:53 PM 46.9 °F - 43.0 °F 86% 30.22 in 10.0 mi Calm Calm - N/A   Clear
8:53 PM 46.9 °F - 43.0 °F 86% 30.22 in 10.0 mi Calm Calm - N/A   Clear
9:53 PM 46.9 °F - 43.0 °F 86% 30.23 in 10.0 mi Calm Calm - N/A   Clear
10:53 PM 45.0 °F - 42.1 °F 90% 30.23 in 9.0 mi Calm Calm - N/A   Clear
11:53 PM 44.1 °F - 41.0 °F 89% 30.25 in 2.0 mi Calm Calm - N/A   Clear